STARLINK-1807, 46706

Orbit data source: Space-Track

STARLINK-1807, 46706 is a payload satellite owned by SpaceX/Seattle (US) in LEO that was launched on Sun, 18 Oct 2020 UTC via an FALCON 9 launch vehicle from the Air Force Eastern Test Range (AFETR). Payload-class satellites include a variety of spacecraft equipped with specific instruments for various scientific and technological missions. These include communications satellites like Starlink; space stations such as the ISS; scientific satellites like the Hubble; Earth observation satellites from companies like Planet Labs, Umbra, and HawkEye 360; GPS; miniature CubeSats for education and research; and military/defense satellites.

Loading next visibility...
Identifier
46706, 2020-073AN
Orbit
LEO
Last TLE update
9 hours ago
Origin
Manufacturer
SpaceX/Seattle
Mission
Operational Commercial Communications
Bus & Motor
STARLINK, Unknown motor
Mass
260 kg wet, ~248 kg dry
Launch date (UTC)
2020-10-18 (5 years ago)
Launch vehicle
FALCON 9
Launch site
Air Force Eastern Test Range (AFETR)
Object type
Payload
Rocket body
Debris
Shape & HBR
Box + 1 Pan, 8.86 m
Radar Cross Section
13.562 m², Large (>1 m²)

Expand to show TLE details & history

TLE from 9 hours ago
0 STARLINK-1807
1 46706U 20073AN  25181.78620406  .00001760  00000-0  13701-3 0  9994
2 46706  53.0561 292.4574 0001309  85.7371 274.3768 15.06400159259163
Epoch: 2025-06-30T18:52Z
TLE epoch observation values (Epoch: 2025-06-30T18:52:08.03Z)
Latitude
-0°
Longitude
90.33292°
Altitude
548.021 km
Speed
7.589 km/s
True Right ascension
19h 29m 49s
True Declination
0° 00' 00"
Sunlit
Object was in full shadow at epoch
Visualization orbit readout
Latitude
-31.17061°
Longitude
61.67944°
Altitude
557.338 km
Speed
7.582 km/s
Apparent Right ascension
21h 12m 36s
Apparent Declination
-71° 04' 07"
Sunlit
Object is in full shadow
Visualization observer readout
Local Sidereal Time
15:52:08
Azimuth
157.224° SSE
Elevation
-34.35°
Doppler factor
1
Orbital elements
Apogee altitude
548.388 km
Perigee altitude
546.575 km
Semi-major axis
6,925.619 km
Eccentricity
0.00013
Inclination
53.0561°
RAAN
292.4574°
Arg. of periapsis
85.7371°
True anomaly
Unknown
Mean anomaly
274.3768°
Eccentric anomaly
Unknown
Mean motion
3.76578 °/min
Orbital period
95.6 mins
BSTAR
0.00013701
Loading maneuver chart data...
Loading SW <> Apogee altitude chart data...
Loading historical data...
Loading historical data...
Loading historical data...
Loading historical data...
Loading historical data...
Loading historical data...
Loading historical data...

STARLINK-1807 Visibility forecast

Observer location: undefined°, undefined°

Span
Click to sort rows by Start time (UTC) header in descending order
Start Az.
Max El. time (UTC)
Max El. Az.
Max El.
End time (UTC)
End Az.
7 mins2025-07-01 09:20:42.391Z193.658° SSW2025-07-01 09:24:42.391Z117.013° SE26.955°2025-07-01 09:27:42.391Z69.517° E
5 mins2025-07-01 11:01:42.391Z274.536° WNW2025-07-01 11:03:42.391Z329.551° NNW32.086°2025-07-01 11:06:42.391Z33.157° NE
5 mins2025-07-01 16:03:42.391Z342.05° N2025-07-01 16:05:42.391Z38.234° NE30.533°2025-07-01 16:08:42.391Z95.395° ESE
5 mins2025-07-01 17:42:42.391Z281.51° WNW2025-07-01 17:44:42.391Z237.546° WSW29.252°2025-07-01 17:47:42.391Z169.756° S
|